Skip Page Navigation
NASA JPL Caltech
NASA Logo - Jet Propulsion Laboratory + View the NASA Portal
+ Center for Near-Earth Object Studies
JPL Home Earth Solar System Stars & Galaxies Technology
JPL Solar System Dynamics
BODIES ORBITS EPHEMERIDES TOOLS PHYSICAL DATA DISCOVERY FAQ SITE MAP

Significant website upgrade scheduled for September 27. More details available here.

JPL Small-Body Database Browser
Search: [ help ]  
(2016 MO)
Classification: Apollo [NEO]          SPK-ID: 3754335
Ephemeris | Orbit Diagram | Orbital Elements | Mission Design | Physical Parameters | Close-Approach Data ]

[ hide orbit diagram ]

For accurate long-term ephemerides, please instead use our Horizons system.This orbit viewer was implemented using two-body methods, and hence should not be used for determining accurate long-term trajectories (over several years or decades) or planetary encounter circumstances.


Orbital Elements at Epoch 2459396.5 (2021-Jul-01.0) TDB
Reference: JPL 9 (heliocentric ecliptic J2000)
 Element Value Uncertainty (1-sigma)   Units 
e .4351065596132671 0.00057127  
a 1.713303562038478 0.0016369 au
q .9678339435867599 5.4108e-05 au
i 2.507871014847459 0.0028217 deg
node 267.80263903538 0.0014491 deg
peri 47.84679977054044 0.0023811 deg
M 68.39955874011983 1.1343 deg
tp 2459240.867353423640
(2021-Jan-26.36735342)
2.358 TDB
period 819.1244768166405
2.24
1.1739
0.003214
d
yr
n .4394936425280151 0.00062983 deg/d
Q 2.458773180490195 0.0023491 au
  Orbit Determination Parameters
   # obs. used (total)      32  
   data-arc span      8 days  
   first obs. used      2016-06-28  
   last obs. used      2016-07-06  
   planetary ephem.      DE441  
   SB-pert. ephem.      SB441-N16  
   condition code      7  
   norm. resid. RMS      .50604  
   source      ORB  
   producer      Otto Matic  
   solution date      2021-Apr-15 17:13:08  

Additional Information
 Earth MOID = .0112558 au 
 Jupiter MOID = 2.86082 au 
 T_jup = 4.069 
[ show covariance matrix ]

Ephemeris | Orbit Diagram | Orbital Elements | Mission Design | Physical Parameters | Close-Approach Data ]

Physical Parameter Table
Parameter Symbol Value Units Sigma Reference Notes
absolute magnitude H 24.8   n/a MPO384633  

[ show close-approach data ]
Ephemeris | Orbit Diagram | Orbital Elements | Mission Design | Physical Parameters | Close-Approach Data ]
ABOUT SSD CREDITS/AWARDS PRIVACY/COPYRIGHT GLOSSARY LINKS
FirstGov 2021-Sep-20 18:32 UT
(server date/time)  
NASA Home Page
Site Manager:   Ryan S. Park
Webmaster  Alan B. Chamberlin